Other Public Products
Issued by NWS Grand Forks, ND

Home | Current Version | Previous Version | Text Only | Print | Product List | Glossary Off
Versions: 1 2 3 4 5 6 7 8 9 10 11 12 13 14 15 16 17 18 19 20 21 22 23 24 25 26 27 28 29 30 31 32 33 34 35 36 37 38 39 40 41 42 43 44 45 46 47 48 49 50

000
FPUS83 KFGF 271510
OPUFGF
PRAIRIE TO PINES WEATHER ROUNDUP
NATIONAL WEATHER SERVICE EASTERN NORTH DAKOTA/GRAND FORKS ND
1000 AM CDT MON APR 27 2015

 **SATELLITE DATA USED TO AUGMENT SKY COVER AT AUTOMATED STATIONS**
 *****  WEATHER ACROSS EASTERN NORTH DAKOTA  *****

CITY           SKY/WX    TMP DP  RH WIND       PRES   REMARKS
GRAND FORKS    PTSUNNY   56  45  66 N6        30.22R
GRAND FORKS AF SUNNY     56  45  65 NE7       30.22S
GRAND CITY NWS   N/A     55 N/A N/A VRB3        N/A
BUXTON         NOT AVBL
DEVILS LAKE    CLOUDY    48  37  66 N10       30.24R
FARGO          SUNNY     58  27  30 SW7       30.24R
WAHPETON ARPT  SUNNY     54  23  30 CALM      30.26S
$$

 *****  WEATHER ACROSS CENTRAL AND WESTERN NORTH DAKOTA  *****

CITY           SKY/WX    TMP DP  RH WIND       PRES   REMARKS
JAMESTOWN      MOSUNNY   55  36  48 NW5       30.22R
BISMARCK       CLOUDY    46  44  93 N12       30.26R
MINOT          LGT RAIN  41  38  89 NW9       30.28R
MINOT AFB      LGT RAIN  41  41 100 NW12      30.28R
GARRISON         N/A     42  39  89 N8        30.29R
WILLISTON      LGT RAIN  44  39  82 NW6       30.32S
DICKINSON      CLOUDY    41  38  89 NW8       30.29R
HETTINGER      CLOUDY    41  39  93 NW15      30.30R FOG
$$

 *****  OTHER OBSERVATIONS NORTHEAST NORTH DAKOTA  *****

CITY           SKY/WX    TMP DP  RH WIND       PRES   REMARKS
WALHALLA       FAIR      50  46  87 N10       30.24S
LANGDON        PTSUNNY   50  41  71 N14       30.23S
CAVALIER       FAIR      52  41  66 N14       30.23S
GRAFTON        FAIR      54  46  76 N14       30.23S
CANDO          CLOUDY    45  39  81 N14       30.25S
FORT TOTTEN    NOT AVBL
ROLLA          FAIR      39  39 100 N12       30.27R
RUGBY          NOT AVBL
 ***** THE ABOVE OBSERVATIONS ARE NON NWS ARE NOT QUALITY
        CONTROLLED AND MAY MIS-REPORT RAIN FOR SNOW...
$$

 *****  OTHER OBSERVATIONS SOUTHEAST NORTH DAKOTA *****

CITY           SKY/WX    TMP DP  RH WIND       PRES   REMARKS
COOPERSTOWN    NOT AVBL
VALLEY CITY    FAIR      57  32  38 SW6       30.23S
OAKES            N/A     59  27  29 S13       30.24S
GWINNER        SUNNY     59  28  31 SW10      30.26R
SHEYENNE NWR     N/A     60  29  30 W6        29.95S
BUFFALO        NOT AVBL
WYNDMERE       NOT AVBL
 ***** THE ABOVE OBSERVATIONS ARE NON NWS ARE NOT QUALITY
       CONTROLLED AND MAY MIS-REPORT RAIN FOR SNOW...
$$

  *****  WEATHER ACROSS NORTHERN MINNESOTA  *****

CITY           SKY/WX    TMP DP  RH WIND       PRES   REMARKS
FLAG ISLAND    PTSUNNY   45  28  53 SE5       30.20F
WARROAD        MOSUNNY   59  30  33 SW3       30.21S
ROSEAU         PTSUNNY   61  30  31 W6        30.21S
HALLOCK        CLOUDY    54  45  71 N10       30.22R
THF RVR FALLS  MOSUNNY   61  28  29 W9        30.23R
HALSTAD        NOT AVBL
FOSSTON        SUNNY     61  21  21 W7        30.23S
BAUDETTE       MOSUNNY   58  22  24 CALM      30.21S
WASKISH        SUNNY     55  25  30 CALM      30.23R
CROOKSTON      MOSUNNY   59  28  31 W7        30.22F
$$
  *****  WEATHER ACROSS CENTRAL AND WEST MINNESOTA  *****

CITY           SKY/WX    TMP DP  RH WIND       PRES   REMARKS
BEMIDJI        SUNNY     59  25  27 W5        30.23R
PARK RAPIDS    SUNNY     61  19  19 NW12      30.23R
WADENA         SUNNY     57  27  30 W8        30.24R
DETROIT LAKES  SUNNY     59  21  23 NW8       30.25R
MOORHEAD       SUNNY     57  25  28 W5        30.25R
FERGUS FALLS   SUNNY     55  19  24 W6        30.27R
ELBOW LAKE     FAIR      56  27  32 SW8       30.26R
MORRIS MN      SUNNY     59  25  27 SW8       30.25R
STAPLES        SUNNY     55  21  26 W8        30.24R
WHEATON        SUNNY     57  27  30 S8        30.27S
$$
  *****  WEATHER ELSEWHERE ACROSS MINNESOTA  *****

CITY           SKY/WX    TMP DP  RH WIND       PRES   REMARKS
DULUTH         SUNNY     55  26  32 N8        30.22S
INTRNTL FALLS  SUNNY     56  27  32 CALM      30.22F
ELY            SUNNY     50  27  40 CALM      30.23S
CLOQUET        SUNNY     55  19  24 N5        30.23R
BRAINERD       SUNNY     56  22  26 W5        30.24R
HIBBING        SUNNY     57  23  26 CALM      30.22S
ALEXANDRIA     SUNNY     55  26  32 SW12      30.27R
SAINT CLOUD    SUNNY     53  27  36 SW5       30.25R
MINNEAPOLIS    SUNNY     57  29  34 CALM      30.25R
$$

  *****  WEATHER ACROSS SOUTH DAKOTA  *****

CITY           SKY/WX    TMP DP  RH WIND       PRES   REMARKS
SIOUX FALLS    MOSUNNY   56  31  38 E5        30.24R
BROOKINGS      NOT AVBL
WATERTOWN      NOT AVBL
HURON          SUNNY     55  30  38 CALM      30.24S
SISSETON         N/A     61  20  20 VRB6      30.24R
ABERDEEN       SUNNY     59  26  28 S7        30.26R
MITCHELL       SUNNY     52  35  52 CALM      30.24R
PIERRE         MOSUNNY   56  36  47 VRB3      30.22S
MOBRIDGE       PTSUNNY   50  44  80 NW6       30.22R
RAPID CITY     CLOUDY    43  39  86 N21       30.28R
$$

  *****  SOME WEATHER IN NEARBY STATES *****

CITY           SKY/WX    TMP DP  RH WIND       PRES   REMARKS
GLASGOW MT     CLOUDY    42  36  79 W7        30.33R
GREAT FALLS MT PTSUNNY   43  32  65 SW12      30.28R
CHEYENNE WY    CLOUDY    37  35  92 CALM      30.25R FOG
SCOTTSBLUFF NE CLOUDY    47  41  80 CALM      30.26R
OMAHA NE       MOSUNNY   53  39  59 N7        30.22R
DES MOINES IA  MOSUNNY   58  33  39 NE6       30.19R
DAVENPORT IA   SUNNY     52  34  50 NE10      30.18R
CHICAGO IL     MOSUNNY   49  32  52 N13G18    30.13R
EAU CLAIRE WI  SUNNY     53  29  39 VRB6      30.22R
LA CROSSE WI   SUNNY     53  34  48 NW5       30.22R
$$

  *****  SOME NATIONAL WEATHER *****

CITY           SKY/WX    TMP DP  RH WIND       PRES   REMARKS
LA GUARDIA NY  MOSUNNY   55  33  43 NW8       29.67F
RALEIGH NC     MOSUNNY   60  42  51 VRB5      29.85R
ATLANTA GA     MOSUNNY   62  50  64 N6        29.91S
NEW ORLEANS LA TSTM      70  66  87 E15G30    29.68F FOG
OKLAHOMA CITY  CLOUDY    54  48  80 E25G35    29.83R
ALBUQUERQUE NM CLOUDY    48  40  73 W6        30.03R
SALT LAKE CITY MOSUNNY   46  35  65 N9        30.24R
LOS ANGELES CA MOSUNNY   62  53  72 E3        29.95R
BOISE ID       SUNNY     43  28  55 W3        30.32R
SEATTLE WA     PTSUNNY   54  50  86 SE5       30.27R
$$

*** WEATHER ACROSS MANITOBA...SASKATCHEWAN AND ONTARIO ***
                ***ONTARIO***

CITY           SKY/WX    TMP DP  RH WIND       PRES   REMARKS
GERALDTON      MOSUNNY   37  28  70 N8        30.23S
THUNDER BAY    SUNNY     52  28  40 NW3       30.21F
SIOUX LOOKOUT  MOSUNNY   50  28  43 VRB2      30.24S
TORONTO        PTSUNNY   45  36  70 N18G24    29.87S
BIG TROUT LK   SUNNY     37  30  75 SE5       30.26F
PICKLE LAKE    PTSUNNY   45  27  49 N2        30.26S
DRYDEN         SUNNY     54  27  35 SW6       30.23S
KENORA         PTSUNNY   55  19  24 S9        30.21S
$$
                *** MANITOBA***

CITY           SKY/WX    TMP DP  RH WIND       PRES   REMARKS
BRANDON          N/A     43  39  87 NW13      30.27R
DAUPHIN        SUNNY     43  34  70 W17       30.26R
ISLAND LAKE    CLOUDY    43  30  61 SE5       30.13R
PILOT MOUND    NOT AVBL
THE PAS        CLOUDY    36  34  93 NW15      30.22R
THOMPSON       DRIZZLE   37  36  93 NW6       30.07R
WINNIPEG       LGT RAIN  50  39  66 NW14      30.24R
LYNN LAKE      CLOUDY    32  32 100 NW8       30.18R WCI  25
CHURCHILL      CLOUDY    27  25  93 E15       30.30F WCI  15
GILLAM         CLOUDY    43  30  61 E3        30.11F
$$
                ***SASKATCHEWAN***

CITY           SKY/WX    TMP DP  RH WIND       PRES   REMARKS
ESTEVAN        NOT AVBL
KINDERSLEY     MOSUNNY   46  34  61 S14       30.21F
LLOYDMINSTER   PTSUNNY   46  32  57 SE14      30.16S
PRINCE ALBERT  NOT AVBL
REGINA         MOSUNNY   43  36  75 NW3       30.31R


USA.gov is the U.S. government's official web portal to all federal, state and local government web resources and services.